Weather in Bauchi

Nigeria     10°18′22″N   9°50′50″E
temp.,
°C
wind,
m/s
gust,
m/s
humid.,
%
clouds,
%
prec.,
mm/h
press.,
hPa
HPBL,
m
4 july, mon
mon401:00+23ssw1177100 0.9 101311
04:00+22ssw118498 0.0 101315
07:00+23wsw1284100 0.4 101487
10:00+28s33576 0.0 1013731
13:00+32ese3440100 0.0 10112484
16:00+31se344734 0.0 10091269
19:00+25s37755 0.1 1011329
22:00+23s24845 0.1 1014165
5 july, tue
tue501:00+22s2590100 0.8 1014176
04:00+21s2594100 0.0 1013195
07:00+22sse249194 0.0 1015203
10:00+27ssw346595 0.0 1015832
13:00+31s224564 0.0 10121679
16:00+32se334110 0.0 10101998
19:00+28ese125376 0.0 101162
22:00+24s22725 0.1 101341
6 july, wed
wed601:00+22sw23875 0.9 101489
04:00+21wsw1190100 1.7 101319
07:00+22w11885 2.4 101594
10:00+27s2264100 0.0 1015671
13:00+31sse224786 0.0 10121832
16:00+32e124096 0.0 10102174
19:00+28se255938 0.5 1011161
22:00+24ssw3379100 5.0 101459
7 july, thu
thu701:00+23w1184100 5.0 101311
04:00+22sw228498 0.0 101221
07:00+23s117970 0.0 101362
10:00+28ssw33575 0.0 1013635
13:00+33sse124113 0.0 10111826
16:00+34nne233520 0.0 10092671
19:00+28n345973 0.4 1011181
22:00+23ssw3487100 4.8 1014123
8 july, fri
fri801:00+21w1291100 10.9 1014109
04:00+22wnw1184100 0.1 101351
07:00+22sw2380100 0.7 1014104
10:00+28s335536 0.0 1014579
13:00+32ssw224389 0.0 10121513
16:00+33n124094 0.0 10091977
19:00+29ese235595 0.0 1010105
22:00+24s2681100 0.9 1013190